Dewpoint
71 70 71 71 71 72 70 68 56 60 59 54 55 57 56 63 64 62 62 64 62 65 67 68 64 64 62 61 60 62 61 58 59 53 50 62 70 70 71 71 72 73 73 74 74 75 75 76 76 76 76 76 76 76 76 76 77 77 76 75 75 75 75 75 75 75 75 75 75 75 75 75 75 75 75 75 75 75 74 75 75 74 75 74 74 74 74 74 74 74 74 73 73 74 74 74 74
71 71 71 72 72 71 64 68 58 57 57 55 56 59 60 62 62 61 62 63 63 64 66 66 64 64 67 63 63 61 61 66 66 65 67 69 70 71 72 72 73 73 73 74 74 75 75 76 77 76 76 76 76 76 77 76 77 76 76 75 75 75 75 75 75 75 75 75 75 75 75 75 75 75 75 75 76 75 74 74 74 74 74 74 74 74 74 74 74 73 73 73 73 74 74 74 74
70 71 71 73 72 69 67 67 55 55 53 50 55 59 63 61 61 62 63 64 62 64 65 64 64 67 65 62 60 59 59 66 66 67 67 69 68 70 72 72 73 73 73 74 74 75 75 76 76 76 77 76 76 77 76 77 77 76 75 75 75 75 75 76 75 75 75 75 75 75 75 75 75 75 75 75 75 75 75 75 74 74 74 74 74 75 74 74 74 74 74 74 74 74 73 74 74
71 72 70 71 65 68 62 61 58 55 52 53 55 61 62 62 62 63 64 63 63 64 64 63 62 64 64 60 62 63 64 64 66 67 66 67 67 71 72 72 74 73 73 74 74 75 75 75 77 77 77 76 77 77 76 77 77 76 76 76 76 76 76 75 75 75 75 75 75 75 75 74 74 75 75 75 75 74 74 74 74 74 75 74 75 74 74 74 74 74 74 74 74 74 74 74 74
70 72 71 70 65 61 62 60 59 58 53 54 54 62 62 62 63 64 62 63 63 63 63 62 62 63 67 63 62 61 62 66 67 67 66 69 71 72 72 73 73 73 73 74 74 74 75 76 77 77 77 77 77 76 77 77 76 76 75 75 76 76 75 75 75 75 75 75 75 75 75 75 75 75 74 75 75 74 74 75 74 74 74 74 75 75 75 75 74 74 75 74 74 74 74 74 74
69 70 71 71 64 69 65 58 57 56 59 63 58 60 63 63 63 64 62 64 65 64 67 61 61 62 61 62 64 63 65 62 65 66 67 70 71 72 72 73 73 73 73 73 74 74 75 77 77 77 76 77 77 76 77 76 76 76 75 76 76 75 74 74 75 75 75 75 74 74 75 74 74 74 74 75 75 75 75 75 75 74 74 75 75 75 75 75 75 75 75 74 74 74 75 74 74
68 69 70 69 67 67 59 57 56 57 59 61 62 60 62 62 63 63 61 61 62 63 65 61 61 61 60 63 64 65 67 66 66 66 68 70 71 72 72 72 72 72 73 73 74 74 75 77 77 77 77 77 76 76 76 76 77 76 76 76 76 75 74 74 74 75 75 75 75 75 76 75 75 74 75 74 74 75 75 75 75 74 74 74 74 74 74 75 75 75 74 74 74 74 74 74 74
70 67 66 63 61 63 58 58 58 60 60 60 61 62 63 64 63 63 63 61 60 62 63 61 60 61 60 63 62 66 66 67 67 69 70 71 71 72 72 72 72 72 73 73 74 75 76 77 77 76 77 76 76 76 76 76 77 76 76 75 75 74 74 73 74 74 75 75 75 75 75 75 74 74 74 74 74 74 74 75 74 74 75 75 74 74 75 75 75 75 74 74 74 74 73 73 74
69 69 69 64 59 61 58 57 57 62 59 61 62 65 65 65 62 64 63 64 64 61 61 60 60 59 62 63 63 66 67 69 70 71 70 71 71 71 71 72 72 72 73 73 74 75 76 77 76 76 76 76 76 76 76 77 77 76 76 75 74 74 74 74 74 74 75 75 75 75 75 75 74 74 74 74 74 74 74 74 74 75 74 75 74 74 75 75 75 74 74 74 74 74 73 73 73
70 69 63 62 61 56 55 54 54 55 58 60 61 64 65 64 65 64 63 62 63 59 60 60 61 62 63 62 64 66 67 69 70 69 70 70 71 71 71 71 72 72 73 74 74 75 76 77 76 76 76 76 76 76 76 77 77 77 76 76 75 74 74 73 74 74 75 75 75 75 75 75 74 73 74 74 74 74 74 74 75 74 74 74 75 74 74 75 74 74 74 74 74 74 74 74 74
66 68 67 61 57 54 52 53 56 57 60 62 62 64 66 66 65 65 64 64 64 60 61 63 62 62 63 63 65 68 69 69 69 68 69 70 70 71 71 72 72 73 73 74 75 76 76 76 77 76 76 76 76 76 76 77 77 77 76 76 75 75 75 75 75 75 75 75 75 75 75 75 74 74 74 73 73 75 75 74 74 75 74 75 75 74 74 74 74 74 74 74 74 74 74 74 75
64 64 65 58 56 52 54 55 55 57 60 61 60 65 68 65 64 63 64 61 60 60 61 62 61 63 63 63 65 67 68 68 68 69 69 70 70 71 71 72 73 73 74 75 75 76 76 75 76 76 76 76 76 76 76 77 77 77 77 76 76 76 76 76 75 75 75 75 75 75 75 75 75 75 75 75 75 74 73 73 74 74 75 74 74 74 75 75 75 74 74 74 74 74 74 75 75
65 64 62 58 56 55 57 56 56 57 59 58 60 63 66 63 63 64 64 61 60 60 60 63 63 63 61 63 66 67 67 67 68 69 69 69 70 71 72 73 73 74 75 75 75 76 75 75 75 75 75 76 76 76 77 77 77 77 76 76 76 76 76 75 75 75 75 75 75 75 74 74 73 73 74 74 73 73 73 72 73 73 74 75 75 75 75 75 75 75 74 74 74 73 74 74 75
66 64 61 55 58 57 56 55 57 52 53 59 60 65 64 62 62 63 62 60 59 59 62 63 63 63 63 64 66 65 66 67 68 69 69 69 70 71 72 73 73 74 75 75 75 75 75 75 76 75 75 75 75 76 77 77 77 77 77 76 76 76 75 75 75 75 75 75 75 75 75 74 74 74 75 74 75 74 73 74 73 74 75 75 75 75 75 75 75 75 75 74 74 74 73 74 74
65 65 63 58 56 57 58 52 54 51 51 57 61 63 62 67 65 62 61 61 59 63 63 64 64 61 61 62 63 64 66 67 68 68 68 68 70 71 72 73 73 74 75 75 75 75 75 75 75 76 75 75 75 75 76 76 77 77 77 77 76 76 75 75 75 75 76 75 76 75 75 74 74 74 75 74 75 75 73 74 75 75 75 75 75 76 75 75 75 76 75 75 74 74 74 74 74
67 65 63 56 53 54 54 53 53 52 52 59 61 61 62 65 65 61 61 61 61 63 64 62 63 60 62 62 63 65 66 67 68 67 67 68 71 72 72 72 73 74 74 75 75 75 75 75 75 75 75 75 75 75 76 76 76 77 77 77 76 76 76 75 76 75 75 75 75 76 75 75 74 74 75 75 75 75 75 74 75 74 75 75 76 75 75 75 76 75 76 76 75 74 73 74 74
67 66 60 57 54 54 54 51 52 50 54 59 62 60 59 60 63 62 62 62 61 61 62 64 62 64 63 63 65 66 67 68 68 66 67 70 71 71 72 72 73 73 74 74 75 74 74 75 75 75 75 75 75 75 76 76 76 77 77 77 76 76 76 76 75 75 75 75 75 75 76 75 75 75 75 75 75 76 74 75 75 75 75 75 75 75 75 76 75 75 75 76 76 75 74 74 74
68 62 59 56 56 54 55 51 51 51 55 58 59 59 59 58 61 61 62 62 64 61 62 63 64 63 64 65 66 67 67 67 66 65 67 70 70 70 70 71 72 72 73 74 74 74 74 74 74 75 75 75 75 76 76 76 76 76 76 76 76 75 75 75 75 75 75 75 76 75 75 76 74 74 75 75 76 74 75 75 75 75 74 75 75 75 76 75 75 76 75 75 75 75 74 74 74
63 60 57 56 56 56 56 56 52 53 53 58 58 59 58 58 60 60 60 60 60 59 61 62 63 64 64 65 66 66 66 65 65 65 68 69 69 69 69 70 71 71 72 73 74 74 74 74 74 75 75 75 76 76 76 76 75 75 75 75 76 76 76 76 75 76 74 74 75 75 76 75 74 75 75 77 77 76 76 75 75 74 74 74 74 74 75 74 74 74 75 74 73 74 76 74 73
64 58 56 57 57 57 56 55 54 54 56 57 57 59 58 58 59 60 60 59 59 58 60 62 63 63 63 64 65 66 65 65 65 65 68 69 69 69 69 69 70 71 72 72 73 74 74 74 74 74 75 75 75 75 76 76 75 75 75 75 75 75 75 76 75 75 75 74 75 74 75 75 75 74 77 75 75 76 75 75 75 74 74 74 74 76 74 74 73 74 74 73 76 77 74 75 74
63 61 57 57 58 57 57 55 55 54 56 56 57 58 57 58 58 58 59 59 58 58 61 62 63 63 63 64 65 65 65 64 64 66 68 69 69 69 69 69 69 70 72 72 73 73 74 74 74 74 75 75 75 75 76 75 75 75 75 75 75 75 75 75 75 75 74 74 74 75 75 76 75 75 75 75 74 74 74 74 75 75 75 75 77 74 75 76 76 75 75 76 75 75 74 74 74
59 60 60 58 56 56 56 55 54 54 56 56 56 57 56 57 57 58 59 57 57 57 61 62 63 64 63 64 64 64 64 64 64 67 68 68 68 68 69 68 69 70 72 72 72 73 74 74 74 74 75 75 75 75 75 76 76 75 75 75 75 75 75 75 75 75 75 74 74 75 76 75 75 75 74 74 74 74 73 74 74 74 74 76 77 74 74 74 74 75 75 75 74 75 74 74 74
58 57 59 59 58 54 53 54 53 54 55 56 55 56 55 56 57 58 59 58 58 59 61 63 64 64 64 64 64 64 64 64 65 67 67 68 68 68 68 68 68 69 71 71 72 73 73 74 74 74 74 74 74 75 75 76 75 75 75 75 75 74 75 75 75 74 75 74 75 75 76 74 74 74 74 74 74 73 73 73 73 74 74 74 76 74 74 74 74 74 74 74 74 74 74 73 74
56 56 56 55 57 57 57 54 53 54 55 55 55 55 53 54 54 55 57 58 59 59 62 63 64 64 64 64 64 65 65 65 65 67 67 68 68 68 68 67 68 69 70 71 72 72 74 73 73 73 73 74 74 75 75 75 75 75 75 76 76 75 75 75 75 75 75 75 75 76 76 74 74 74 74 74 74 73 73 73 74 73 74 74 75 75 74 74 74 74 73 73 74 74 73 73 73
52 53 55 55 54 54 54 54 51 52 53 55 54 53 52 53 53 54 54 58 57 60 63 64 64 64 64 64 65 65 65 65 65 66 67 68 68 68 68 67 68 69 69 70 71 72 73 73 73 73 73 73 74 74 74 75 75 75 75 75 75 76 75 75 75 75 75 75 75 76 76 74 74 74 74 74 74 74 73 73 74 74 73 74 74 74 74 73 73 74 74 74 73 73 72 71 73
50 53 54 54 54 53 51 51 51 50 51 53 52 52 52 53 53 52 53 56 58 62 62 63 64 64 64 64 65 65 65 65 66 66 67 67 68 68 67 67 67 68 69 70 71 71 72 73 72 72 72 73 73 74 74 74 74 74 74 75 75 76 75 75 75 74 74 75 75 75 76 74 74 73 74 74 74 74 74 73 74 74 73 73 74 74 74 74 73 73 74 74 73 72 72 71 73
50 50 51 52 52 52 51 49 51 50 50 52 51 51 51 51 51 50 54 57 60 62 62 63 63 63 64 64 65 65 65 65 66 66 67 67 68 68 68 67 67 67 69 69 70 71 72 72 72 72 71 73 73 73 73 73 74 73 74 74 74 75 75 75 75 74 74 75 75 75 75 75 74 73 73 74 74 74 74 74 73 73 73 73 74 73 74 75 74 74 74 71 71 71 71 72 72
46 46 47 49 51 51 51 50 49 50 49 51 50 50 51 51 51 50 56 58 61 61 62 62 63 63 63 64 64 65 65 66 66 66 66 66 67 68 68 67 67 67 68 68 69 71 71 71 71 71 71 72 72 72 73 72 73 73 73 73 73 74 74 74 74 73 75 75 75 75 75 74 76 73 73 73 74 73 73 73 73 73 74 74 74 73 73 74 74 74 74 73 71 71 72 72 73
43 44 44 45 47 46 44 46 48 49 48 50 49 48 49 50 49 51 57 59 60 61 61 61 62 62 63 63 63 64 65 65 66 66 66 66 67 68 67 68 67 67 67 68 69 71 71 71 71 71 70 72 71 71 71 71 72 73 73 72 73 73 73 74 73 72 73 74 75 75 75 74 75 73 73 73 76 73 73 73 73 74 74 74 74 74 74 74 74 75 74 75 74 73 72 72 73
42 42 43 43 43 42 41 42 47 49 49 50 48 45 46 48 50 53 58 58 60 60 60 61 61 62 62 62 63 64 65 65 65 66 66 66 67 67 67 68 68 67 67 68 69 70 70 70 71 70 70 71 71 71 71 71 71 72 72 72 73 73 72 73 73 72 73 74 75 75 75 74 74 73 73 73 74 73 73 73 73 73 73 74 74 75 74 74 74 73 72 72 76 74 72 71 72
39 41 42 41 41 40 40 42 46 48 50 50 48 45 46 47 49 56 58 58 59 59 59 60 60 61 62 62 63 63 64 65 65 66 66 66 66 67 67 67 68 67 68 68 69 69 71 70 70 69 71 71 72 71 71 71 71 72 72 72 72 72 72 72 72 72 73 74 74 74 75 75 75 73 73 73 74 73 73 73 73 73 73 75 74 75 74 73 72 72 74 70 71 72 72 73 71
34 33 34 36 39 38 37 42 47 46 49 49 47 45 46 47 49 57 58 58 58 58 59 59 60 60 61 62 62 63 64 64 65 65 66 66 66 66 67 67 67 67 67 68 69 69 70 70 70 69 70 70 71 71 71 71 71 71 71 73 71 71 72 72 72 72 72 73 74 74 74 75 75 74 74 74 74 73 73 73 73 74 74 75 74 75 74 73 73 73 74 72 71 71 71 69 69
32 31 33 32 34 34 34 38 46 47 48 49 47 45 46 47 52 57 58 58 58 58 58 59 59 60 60 61 62 63 63 64 64 65 65 66 66 66 66 66 67 67 67 68 68 69 69 70 71 69 69 70 71 71 72 71 71 70 71 72 71 71 71 71 72 72 72 73 73 73 74 75 75 74 74 74 74 73 73 73 74 74 75 75 74 74 74 74 73 74 73 75 72 69 66 62 63
31 33 31 32 33 35 34 38 43 46 47 47 48 45 45 47 54 57 57 58 58 58 58 58 59 59 60 60 61 62 62 63 63 64 65 66 66 66 66 68 67 67 68 68 69 69 69 69 70 69 69 70 71 71 71 71 71 70 70 71 73 71 71 71 71 72 72 73 73 73 74 75 75 75 74 74 73 73 74 74 74 74 75 74 74 74 73 74 73 72 72 73 72 68 63 63 64
31 32 33 32 33 35 35 35 39 45 46 47 47 46 45 48 54 56 57 57 57 57 58 58 58 59 59 60 60 61 61 62 63 64 65 65 66 66 66 67 67 67 68 68 69 69 69 70 70 70 69 70 71 71 72 72 72 71 70 71 72 72 71 71 71 72 72 73 73 73 74 75 75 75 75 74 73 74 74 74 75 75 75 74 74 74 73 73 73 72 72 71 72 70 64 64 65
29 32 32 33 31 31 33 36 39 44 45 45 46 46 45 49 53 56 56 57 57 57 58 58 58 59 59 59 60 60 60 61 63 64 64 65 65 66 66 66 67 67 68 69 69 69 69 70 70 70 70 70 71 72 72 71 72 72 70 71 72 72 72 72 71 72 73 73 73 73 74 74 75 75 74 74 73 74 73 74 75 75 75 74 74 73 73 73 73 72 72 70 68 65 66 66 67
32 33 32 31 31 31 32 34 39 45 44 44 45 45 46 49 52 55 56 57 57 57 57 57 58 58 58 59 59 59 59 60 62 63 63 64 65 66 66 67 67 68 68 68 69 69 70 70 70 70 70 70 71 71 71 71 71 71 71 70 71 71 71 71 71 72 73 73 73 73 74 74 74 75 75 74 73 75 73 73 74 75 75 74 74 74 74 73 72 72 73 74 68 63 62 66 67
29 29 31 31 32 31 32 32 35 40 44 44 45 44 46 48 51 54 55 56 56 56 56 57 57 58 58 58 58 59 59 60 61 62 62 64 64 65 65 66 68 67 68 68 69 69 70 70 70 70 71 70 71 71 71 71 71 71 71 70 70 71 71 71 71 71 72 73 73 73 73 74 74 74 75 74 74 74 73 73 74 75 75 74 74 74 73 75 74 73 71 68 69 64 60 66 67
27 27 28 28 29 32 32 32 32 34 40 39 43 43 45 48 50 53 54 55 56 56 57 57 57 57 58 58 58 58 59 59 60 61 61 62 63 64 65 66 67 67 68 68 69 69 70 70 70 71 71 71 70 71 71 71 71 71 71 70 70 70 71 71 71 71 72 73 73 74 74 74 74 74 74 74 73 74 74 73 74 75 75 75 74 73 73 72 73 73 70 68 67 67 66 67 66
28 26 26 26 30 29 29 31 33 31 37 36 39 41 43 47 49 51 54 55 55 56 56 57 57 57 57 58 58 58 58 59 59 60 60 61 63 63 64 65 66 67 68 68 69 69 70 70 70 70 71 71 71 71 72 71 71 71 72 71 71 71 71 72 72 72 71 72 73 74 74 74 74 74 74 74 74 73 74 73 74 75 75 75 74 73 72 72 72 71 70 70 67 64 61 60 68
27 27 26 26 26 27 29 30 30 31 30 32 35 41 41 43 46 49 51 54 54 55 56 56 57 57 57 58 58 58 58 58 59 60 60 60 62 63 63 65 66 67 68 68 69 69 69 70 70 70 71 71 71 71 71 71 71 71 71 71 72 71 71 71 70 71 71 71 72 73 74 74 74 74 74 74 74 73 74 74 74 75 74 75 74 73 72 73 73 72 71 71 67 65 62 62 64
28 27 27 26 26 26 26 28 28 29 28 30 30 32 37 42 45 47 49 51 52 54 54 55 56 56 57 57 57 58 59 59 59 59 60 60 61 62 63 64 65 66 67 68 69 69 69 70 70 70 71 71 71 71 71 71 71 70 70 70 70 70 69 69 69 69 70 70 71 72 74 74 74 74 74 74 74 74 73 74 75 75 75 75 75 74 73 72 73 72 72 71 69 66 63 62 61
27 27 27 27 26 26 26 30 31 30 28 31 32 28 31 40 44 45 48 49 51 52 53 54 55 56 56 56 57 57 58 58 59 59 60 60 60 61 62 63 64 65 66 68 68 69 69 70 70 70 71 71 72 71 71 71 70 70 70 69 69 69 69 69 70 69 70 70 72 72 73 74 74 74 74 74 74 74 73 74 75 75 75 75 75 74 73 73 74 74 73 71 71 71 63 60 62
27 28 27 26 26 25 25 26 28 29 33 30 29 33 31 35 42 45 47 48 49 50 51 53 54 55 56 56 57 57 58 58 58 59 59 60 60 61 62 63 63 65 66 67 68 69 69 69 70 70 71 72 71 71 71 71 70 70 70 69 69 69 69 69 69 69 70 71 72 73 73 74 74 74 74 74 74 74 74 74 75 75 75 75 75 74 74 74 74 74 74 73 71 71 67 62 62
29 26 26 25 25 25 25 24 26 28 28 26 28 30 29 35 39 45 47 46 48 49 50 51 53 54 55 56 57 57 58 58 58 58 59 59 60 60 61 62 63 64 66 67 68 68 69 69 70 70 70 71 71 71 71 71 71 70 70 69 69 70 69 69 70 70 70 72 72 73 73 74 74 74 74 74 74 74 75 74 75 75 75 75 76 75 74 74 74 74 73 72 71 71 69 65 63
28 29 26 25 25 24 24 25 26 29 28 25 27 27 25 29 37 43 46 46 46 48 49 50 51 53 54 55 56 57 58 58 58 58 58 59 60 60 61 62 63 63 65 67 67 68 68 69 69 70 70 71 71 71 71 71 71 71 70 69 69 69 70 70 70 69 69 71 71 72 73 73 74 74 74 74 74 74 74 75 75 75 75 75 76 75 74 74 74 74 74 73 72 71 69 66 63
31 29 29 28 26 25 31 28 29 31 25 25 26 27 25 24 32 41 45 45 46 47 49 50 51 52 53 54 55 57 57 58 58 58 58 59 59 60 60 61 62 63 65 66 67 67 68 68 69 69 70 70 71 71 71 71 71 71 70 69 69 69 69 69 69 69 69 69 69 71 72 73 73 73 74 74 74 74 74 75 75 75 75 76 76 75 74 74 74 74 74 73 72 71 69 68 67
32 29 28 29 28 31 29 30 33 25 23 26 26 26 24 23 27 35 46 47 47 47 47 48 49 51 52 53 54 56 57 58 58 58 58 58 59 59 60 61 61 62 64 65 66 67 68 68 68 69 69 70 70 70 71 70 70 70 70 70 69 69 69 69 69 69 69 69 69 70 72 73 73 73 73 74 74 74 74 75 75 75 75 75 75 76 75 75 75 74 73 73 73 71 69 69 67
31 30 29 26 26 26 25 24 23 25 24 29 24 23 22 23 24 27 42 46 47 47 47 48 49 50 51 52 53 55 56 57 58 58 58 58 58 59 59 60 62 62 63 65 65 66 67 67 68 68 69 70 70 70 70 70 70 70 70 70 70 70 70 70 69 69 69 69 69 69 71 72 72 73 73 73 73 73 74 74 75 75 75 75 75 75 75 75 75 74 74 73 72 71 70 69 67
30 30 28 27 24 24 23 24 21 19 23 25 23 22 21 26 23 23 34 44 47 47 47 48 49 50 51 52 53 54 56 57 57 58 58 58 58 59 59 60 61 62 63 64 65 66 67 67 68 68 68 69 70 70 70 70 70 70 70 70 70 70 70 70 69 69 69 69 69 68 70 71 72 72 73 73 73 73 74 74 75 75 75 75 75 75 75 75 75 75 74 73 72 72 70 68 68
30 31 28 28 26 24 23 23 21 20 20 20 20 18 20 17 23 20 28 40 45 47 47 47 48 49 50 51 52 53 55 56 57 58 58 58 58 59 59 60 61 61 62 63 64 66 66 67 68 68 68 69 70 70 70 70 70 70 70 70 70 70 70 70 70 70 69 69 69 68 69 71 71 72 72 73 73 73 73 73 74 75 75 75 75 75 75 75 75 75 74 74 73 72 70 69 67
29 30 30 27 26 30 24 24 19 19 18 17 18 19 23 18 31 36 23 32 41 45 46 47 47 49 50 51 52 53 54 55 57 57 58 58 59 59 59 60 60 61 62 63 64 65 66 67 67 68 68 69 69 70 70 70 70 70 70 70 70 70 71 70 70 70 69 69 69 69 69 70 71 72 72 73 73 73 73 73 74 74 75 75 75 75 75 75 75 74 74 73 73 73 71 70 68
26 28 28 28 25 24 26 34 29 25 20 16 27 20 18 19 18 14 26 27 35 41 43 44 46 48 50 51 52 53 54 55 56 57 58 58 58 59 59 59 60 61 62 63 64 65 66 67 67 68 68 68 69 70 70 70 70 70 70 70 70 70 70 69 69 70 70 69 69 70 69 69 71 71 72 73 72 73 73 73 73 74 74 75 75 75 75 75 75 74 74 73 73 73 72 70 69
24 25 27 23 25 26 25 22 23 18 13 18 19 16 15 14 17 32 18 24 27 35 40 42 44 47 49 50 51 53 54 55 57 57 58 58 59 59 59 59 60 60 61 63 64 65 66 66 67 67 68 68 69 69 69 69 69 69 69 70 69 69 69 70 69 69 70 70 69 70 70 70 70 71 72 73 73 73 73 74 73 73 74 74 75 75 75 75 74 74 74 74 73 73 72 72 70
23 23 23 24 21 22 23 24 18 15 14 14 17 20 20 17 21 23 16 15 22 31 37 40 42 46 48 49 51 53 54 56 57 57 58 59 59 59 59 59 60 60 62 63 64 65 65 66 67 67 67 68 68 69 69 69 69 69 69 69 69 69 69 69 70 69 70 71 69 69 70 70 70 71 72 72 72 72 73 73 73 73 74 74 74 74 75 75 74 74 74 74 73 73 72 72 71
24 21 23 24 20 22 21 22 25 18 18 17 12 18 13 21 14 16 13 16 20 31 36 38 40 43 47 49 50 52 54 55 57 57 58 59 59 59 59 59 59 60 62 63 64 64 65 66 67 67 67 68 68 68 69 69 69 69 69 69 70 70 70 69 70 69 69 70 71 70 70 70 70 71 72 72 72 72 72 72 73 73 73 73 74 74 74 74 74 74 74 74 73 73 72 72 72
18 19 19 21 22 22 21 23 17 18 23 17 15 11 18 24 25 17 15 17 17 27 39 41 40 42 45 49 50 51 53 55 56 58 58 59 59 59 59 59 60 60 62 63 63 64 65 65 66 67 67 67 68 68 69 69 69 69 69 69 69 69 69 69 69 70 69 69 70 71 70 70 71 71 72 72 72 72 72 72 73 73 73 73 73 74 74 74 74 74 73 74 74 73 73 72 72
17 18 18 19 18 18 16 17 20 22 19 17 14 10 22 22 25 17 16 17 16 18 36 44 44 44 45 48 50 51 53 54 56 57 58 59 60 59 59 60 60 60 61 63 63 64 65 65 66 66 66 67 67 68 68 69 69 69 68 69 69 69 69 69 69 69 70 69 69 71 71 71 71 71 72 72 72 72 72 72 72 73 73 73 73 73 74 74 74 73 73 73 73 73 73 73 72